TimeCDT,TemperatureF,Dew PointF,Humidity,Sea Level PressureIn,VisibilityMPH,Wind Direction,Wind SpeedMPH,Gust SpeedMPH,PrecipitationIn,Events,Conditions,WindDirDegrees,DateUTC
12:15 AM,62.6,56.5,80,30.19,10.0,South,4.6,-,N/A,,Clear,190,2012-09-13 05:15:00
12:35 AM,62.4,56.5,81,30.19,10.0,South,4.6,-,N/A,,Clear,180,2012-09-13 05:35:00
12:55 AM,63.5,56.8,79,30.19,10.0,South,6.9,-,N/A,,Clear,180,2012-09-13 05:55:00
1:15 AM,62.6,56.5,80,30.19,10.0,SSW,3.5,-,N/A,,Scattered Clouds,200,2012-09-13 06:15:00
1:35 AM,61.9,56.7,83,30.19,10.0,South,5.8,-,N/A,,Mostly Cloudy,190,2012-09-13 06:35:00
1:55 AM,62.6,57.0,82,30.20,10.0,South,6.9,-,N/A,,Mostly Cloudy,180,2012-09-13 06:55:00
2:15 AM,63.5,56.8,79,30.20,10.0,South,5.8,-,N/A,,Overcast,190,2012-09-13 07:15:00
2:35 AM,62.1,56.7,82,30.20,10.0,South,5.8,-,N/A,,Mostly Cloudy,180,2012-09-13 07:35:00
2:55 AM,61.9,56.7,83,30.20,10.0,South,4.6,-,N/A,,Mostly Cloudy,190,2012-09-13 07:55:00
3:15 AM,61.7,56.7,84,30.20,10.0,South,5.8,-,N/A,,Mostly Cloudy,180,2012-09-13 08:15:00
3:35 AM,62.1,56.8,83,30.21,10.0,South,5.8,-,N/A,,Scattered Clouds,180,2012-09-13 08:35:00
3:55 AM,62.1,56.8,83,30.21,10.0,South,6.9,-,N/A,,Mostly Cloudy,180,2012-09-13 08:55:00
4:15 AM,62.6,56.8,81,30.21,10.0,South,6.9,-,N/A,,Overcast,180,2012-09-13 09:15:00
4:35 AM,63.5,57.0,79,30.21,10.0,South,5.8,-,N/A,,Overcast,180,2012-09-13 09:35:00
4:55 AM,63.0,57.2,81,30.21,10.0,South,4.6,-,N/A,,Overcast,190,2012-09-13 09:55:00
5:15 AM,63.5,57.4,80,30.21,10.0,SSW,5.8,-,N/A,,Overcast,200,2012-09-13 10:15:00
5:35 AM,64.9,57.7,77,30.21,10.0,SSW,5.8,-,N/A,,Overcast,200,2012-09-13 10:35:00
5:55 AM,65.3,58.1,77,30.21,10.0,South,5.8,-,N/A,,Overcast,180,2012-09-13 10:55:00
6:15 AM,64.8,58.1,79,30.21,10.0,South,5.8,-,N/A,,Overcast,180,2012-09-13 11:15:00
6:35 AM,64.9,58.3,79,30.22,10.0,South,5.8,-,N/A,,Overcast,180,2012-09-13 11:35:00
6:55 AM,64.8,58.5,80,30.23,10.0,South,4.6,-,N/A,,Overcast,190,2012-09-13 11:55:00
7:15 AM,65.3,59.0,80,30.23,10.0,SSW,4.6,-,N/A,,Overcast,200,2012-09-13 12:15:00
7:35 AM,66.2,59.2,78,30.23,10.0,SSW,4.6,-,N/A,,Overcast,210,2012-09-13 12:35:00
7:55 AM,66.7,59.4,77,30.23,10.0,SSW,5.8,-,N/A,,Overcast,200,2012-09-13 12:55:00
8:15 AM,67.3,59.9,77,30.24,10.0,South,5.8,-,N/A,,Overcast,190,2012-09-13 13:15:00
8:35 AM,68.4,60.4,76,30.24,10.0,South,5.8,-,N/A,,Overcast,190,2012-09-13 13:35:00
8:55 AM,69.4,60.6,73,30.24,10.0,South,5.8,-,N/A,,Overcast,190,2012-09-13 13:55:00
9:15 AM,70.3,59.9,69,30.25,10.0,SW,5.8,-,N/A,,Overcast,220,2012-09-13 14:15:00
9:35 AM,72.1,60.1,66,30.25,10.0,SW,5.8,-,N/A,,Scattered Clouds,230,2012-09-13 14:35:00
9:55 AM,72.7,59.9,64,30.26,10.0,Calm,Calm,-,N/A,,Scattered Clouds,0,2012-09-13 14:55:00
10:15 AM,73.6,59.4,61,30.26,10.0,Calm,Calm,-,N/A,,Scattered Clouds,0,2012-09-13 15:15:00
10:35 AM,75.0,59.9,59,30.26,10.0,NW,5.8,-,N/A,,Scattered Clouds,310,2012-09-13 15:35:00
10:55 AM,75.0,58.6,57,30.26,10.0,WNW,3.5,-,N/A,,Clear,290,2012-09-13 15:55:00
11:15 AM,75.7,58.8,56,30.25,10.0,Calm,Calm,-,N/A,,Clear,0,2012-09-13 16:15:00
11:35 AM,76.6,58.5,53,30.24,10.0,NNW,3.5,-,N/A,,Clear,330,2012-09-13 16:35:00
11:55 AM,78.1,57.7,49,30.23,10.0,NNW,4.6,-,N/A,,Clear,330,2012-09-13 16:55:00
12:15 PM,79.3,56.3,45,30.23,10.0,Calm,Calm,-,N/A,,Clear,0,2012-09-13 17:15:00
12:35 PM,79.3,57.4,47,30.22,10.0,SW,8.1,-,N/A,,Scattered Clouds,230,2012-09-13 17:35:00
12:55 PM,81.3,56.8,43,30.21,10.0,SW,6.9,-,N/A,,Mostly Cloudy,230,2012-09-13 17:55:00
1:15 PM,80.2,56.3,44,30.21,10.0,Calm,Calm,-,N/A,,Mostly Cloudy,0,2012-09-13 18:15:00
1:35 PM,79.7,55.0,43,30.21,10.0,Calm,Calm,-,N/A,,Overcast,0,2012-09-13 18:35:00
1:55 PM,79.9,55.8,43,30.20,10.0,West,5.8,-,N/A,,Overcast,270,2012-09-13 18:55:00
2:15 PM,81.1,56.7,43,30.19,10.0,SSW,3.5,-,N/A,,Overcast,210,2012-09-13 19:15:00
2:35 PM,80.4,55.4,42,30.19,10.0,WSW,6.9,-,N/A,,Overcast,240,2012-09-13 19:35:00
2:55 PM,79.0,55.2,44,30.19,10.0,WSW,8.1,-,N/A,,Overcast,240,2012-09-13 19:55:00
3:15 PM,76.8,59.9,56,30.19,10.0,North,12.7,18.4,N/A,,Overcast,360,2012-09-13 20:15:00
3:35 PM,72.5,59.7,64,30.20,10.0,NNE,16.1,23.0,N/A,,Overcast,20,2012-09-13 20:35:00
3:55 PM,71.6,59.4,65,30.20,10.0,NNE,11.5,20.7,N/A,,Overcast,20,2012-09-13 20:55:00
4:15 PM,71.1,59.2,66,30.21,10.0,North,12.7,18.4,N/A,,Overcast,10,2012-09-13 21:15:00
4:35 PM,69.3,57.6,66,30.21,10.0,NNE,13.8,19.6,N/A,,Scattered Clouds,20,2012-09-13 21:35:00
4:55 PM,68.9,57.2,66,30.23,10.0,NNE,11.5,23.0,N/A,,Scattered Clouds,20,2012-09-13 21:55:00
5:15 PM,67.1,57.2,70,30.23,10.0,North,10.4,16.1,N/A,,Mostly Cloudy,10,2012-09-13 22:15:00
5:35 PM,66.6,57.2,72,30.24,10.0,North,11.5,18.4,N/A,,Overcast,10,2012-09-13 22:35:00
5:55 PM,65.8,56.7,72,30.24,10.0,North,16.1,21.9,N/A,,Overcast,360,2012-09-13 22:55:00
6:15 PM,64.6,55.8,73,30.26,10.0,NNE,9.2,17.3,N/A,,Overcast,20,2012-09-13 23:15:00
6:35 PM,63.1,53.1,70,30.26,10.0,North,11.5,20.7,N/A,,Overcast,10,2012-09-13 23:35:00
6:55 PM,62.2,52.9,71,30.27,10.0,North,8.1,17.3,N/A,,Overcast,360,2012-09-13 23:55:00
7:15 PM,61.7,52.9,73,30.27,10.0,NNW,8.1,-,N/A,,Overcast,340,2012-09-14 00:15:00
7:35 PM,61.2,52.7,74,30.28,10.0,North,8.1,17.3,N/A,,Overcast,360,2012-09-14 00:35:00
7:55 PM,61.3,53.8,76,30.28,10.0,North,5.8,16.1,N/A,,Overcast,350,2012-09-14 00:55:00
8:15 PM,61.7,53.6,75,30.29,10.0,North,9.2,-,N/A,,Overcast,360,2012-09-14 01:15:00
8:35 PM,61.7,53.6,75,30.29,10.0,North,8.1,-,N/A,,Overcast,360,2012-09-14 01:35:00
8:55 PM,61.7,53.6,75,30.29,10.0,North,4.6,-,N/A,,Overcast,350,2012-09-14 01:55:00
9:15 PM,61.0,52.9,75,30.30,10.0,NNW,6.9,-,N/A,,Overcast,340,2012-09-14 02:15:00
9:35 PM,59.4,53.2,80,30.30,10.0,NNW,6.9,-,N/A,,Light Drizzle,330,2012-09-14 02:35:00
9:55 PM,58.1,54.0,86,30.31,10.0,NW,6.9,-,N/A,,Drizzle,320,2012-09-14 02:55:00
10:15 PM,57.2,54.1,89,30.31,5.0,NNW,6.9,-,N/A,Rain,Rain,330,2012-09-14 03:15:00
10:35 PM,57.2,54.1,89,30.31,7.0,NNW,5.8,-,N/A,Rain,Rain,330,2012-09-14 03:35:00
10:55 PM,57.0,54.1,90,30.32,7.0,NNW,6.9,-,0.02,Rain,Rain,330,2012-09-14 03:55:00
11:15 PM,56.8,54.0,90,30.32,10.0,NNW,5.8,-,0.01,,Drizzle,330,2012-09-14 04:15:00
11:35 PM,56.7,53.8,90,30.32,10.0,North,8.1,-,0.01,,Drizzle,350,2012-09-14 04:35:00
11:55 PM,56.3,53.6,91,30.32,10.0,North,4.6,-,0.01,,Drizzle,350,2012-09-14 04:55:00